Weather Roundup
Issued by NWS

Home | Current Version | Previous Version | Text Only | Print | Product List | Glossary On
Versions: 1 2 3 4 5 6 7 8 9 10 11 12 13 14 15 16 17 18 19 20 21 22 23 24 25 26 27 28 29 30 31 32 33 34 35 36 37 38 39 40 41 42 43 44 45 46 47 48 49 50
000
NZUS93 KARX 241310
HRRWXR

CURRENT HOURLY OBSERVATIONS ACROSS
MUCH OF THE UPPER MISSISSIPPI VALLEY
NATIONAL WEATHER SERVICE LA CROSSE WI
800 AM CDT THU APR 24 2014


...SOUTHEAST MINNESOTA...


CITY           SKY/WX    TMP DP  RH WIND       PRES   REMARKS
ROCHESTER      RAIN      40  37  89 SE25G36   29.76F FOG     WCI  29
ROCHESTER/MAYO CLOUDY    39  37  93 E18G26    29.78F WCI  30
WINONA         HVY RAIN  39  37  93 SE12G17   29.88S WCI  32
AUSTIN         CLOUDY    43  37  81 SE21G29   29.74F
ALBERT LEA     CLOUDY    41  41 100 SE20G30   29.72S
DODGE CENTER   LGT RAIN  43  41  93 SE23      29.75F
PRESTON        LGT RAIN  40  38  95 E16       29.81F WCI  31
OWATONNA       CLOUDY    43  39  87 SE20G29   29.73F
FARIBAULT      LGT RAIN  43  37  81 E10G17    29.76F
$$

...ELSEWHERE IN MINNESOTA...


CITY           SKY/WX    TMP DP  RH WIND       PRES   REMARKS
MINNEAPOLIS    LGT RAIN  40  39  97 E14       29.79F WCI  32
INTNL FALLS    CLOUDY    38  35  89 SE10      29.90R WCI  31
DULUTH         DRIZZLE   35  33  92 SE20      29.92S FOG     WCI  24
RED WING       LGT RAIN  39  37  93 SE15G22   29.81R WCI  31
REDWOOD FALLS  LGT RAIN  44  42  93 E5        29.71R FOG
MANKATO        CLOUDY    43  39  87 SE12      29.73F
WORTHINGTON    CLOUDY    43  37  81 S12       29.70R
FAIRMONT       CLOUDY    43  37  81 SE16G24   29.70R
$$

...SOUTHWEST WISCONSIN...


CITY           SKY/WX    TMP DP  RH WIND       PRES   REMARKS
LA CROSSE      RAIN      40  38  93 SE10      29.89F WCI  33
PRAIRIE DU CHI LGT RAIN  43  36  77 E12       29.84S
BOSCOBEL       CLOUDY    40  37  89 NE6       29.90F
LONE ROCK      LGT RAIN  41  37  86 E17       29.91F
PLATTEVILLE    CLOUDY    42  36  78 E20G28    29.86F
FORT MC COY    RAIN      37  37  97 E8        29.93S WCI  31
CAMP DOUGLAS   LGT RAIN  37  37 100 E10       29.95R WCI  30
VIROQUA        CLOUDY    37  37 100 E16       29.88S WCI  27
WIS DELLS      CLOUDY    38  35  87 E12       29.95R WCI  31
$$

...ELSEWHERE IN WISCONSIN...


CITY           SKY/WX    TMP DP  RH WIND       PRES   REMARKS
MILWAUKEE      CLOUDY    40  33  76 E14       30.02F WCI  32
MADISON        CLOUDY    42  35  76 SE14      29.95F
GREEN BAY      CLOUDY    41  28  60 E6        30.04F
EAU CLAIRE     RAIN      38  36  92 E15       29.89F WCI  29
BLACK RVR FLS  RAIN      38  38 100 E9        29.93S WCI  31
MEDFORD        LGT RAIN  34  31  88 E9        29.95F WCI  27
WAUSAU         CLOUDY    39  21  48 SE9       29.98S WCI  33
WIS RAPIDS     RAIN      37  36  96 E8        29.99R FOG     WCI  31
MARSHFIELD     RAIN      36  33  89 E15G21    29.95F FOG     WCI  27
RICE LAKE      LGT RAIN  37  35  94 E14G21    29.90F WCI  28
$$

...NORTHEAST IOWA...


CITY           SKY/WX    TMP DP  RH WIND       PRES   REMARKS
WATERLOO       CLOUDY    43  39  86 SE16      29.72F
DUBUQUE        CLOUDY    45  35  68 SE18G26   29.84F
DECORAH        LGT RAIN  41  39  93 E17G23    29.80S
MASON CITY     CLOUDY    42  39  89 E17       29.72F
CHARLES CITY   CLOUDY    43  37  81 SE23G32   29.75R
OELWEIN        MIX PCPN N/A N/A N/A E16G23    29.77S
$$

...ELSEWHERE IN IOWA...


CITY           SKY/WX    TMP DP  RH WIND       PRES   REMARKS
DES MOINES     LGT RAIN  52  44  74 SE13      29.64S
IOWA CITY      PTSUNNY   50  39  66 SE14      29.79F
FORT DODGE     CLOUDY    46  39  76 E10       29.67R
MARSHALLTOWN   CLOUDY    47  39  74 SE25G32   29.66F
CEDAR RAPIDS   PTSUNNY   50  37  61 SE17G25   29.75F
$$

...NORTHERN ILLINOIS...


CITY           SKY/WX    TMP DP  RH WIND       PRES   REMARKS
CHICAGO-OHARE  CLOUDY    46  34  62 E10       30.00F
DUPAGE         CLOUDY    47  35  63 SE12      29.98F
CHICAGO-MIDWAY CLOUDY    47  38  71 SE10      30.01F
MOLINE         PTSUNNY   49  38  65 SE15      29.85F
ROCKFORD       CLOUDY    46  34  62 SE12      29.96S
STERLING       CLOUDY    46  37  71 SE12      29.90S
PEORIA         PTSUNNY   54  35  48 SE16G23   29.90F
$$

NOTE: "FAIR" INDICATES FEW OR NO CLOUDS BELOW 12,000 FEET WITH NO
SIGNIFICANT WEATHER AND/OR OBSTRUCTIONS TO VISIBILITY. WIND
SPEEDS ARE IN MILES-PER-HOUR.



USA.gov is the U.S. government's official web portal to all federal, state and local government web resources and services.